This is the latest recevied weather packets stored in our database for station/object DB0OHL. If no packets are shown the sender has not sent any weather packets the latest 10 day(s).
| Time | Temp. | Humidity | Pressure | Rain* | Wind** | Luminosity | Snow |
|---|---|---|---|---|---|---|---|
| 1777934141 | 13.33° C | 99% | 1011.8 hPa | 0 mm | - | - | - |
| 1777933539 | 13.33° C | 99% | 1011.8 hPa | 0 mm | - | - | - |
| 1777932936 | 13.33° C | 99% | 1011.9 hPa | 0 mm | - | - | - |
| 1777932334 | 13.33° C | 99% | 1011.9 hPa | 0 mm | - | - | - |
| 1777931731 | 13.33° C | 99% | 1012 hPa | 0 mm | - | - | - |
| 1777931128 | 13.33° C | 99% | 1012 hPa | 0 mm | - | - | - |
| 1777930526 | 12.78° C | 99% | 1012.1 hPa | 0 mm | - | - | - |
| 1777929923 | 12.78° C | 99% | 1012.1 hPa | 0 mm | - | - | - |
| 1777929321 | 13.33° C | 99% | 1012.1 hPa | 0 mm | - | - | - |
| 1777928718 | 13.33° C | 99% | 1012.2 hPa | 0 mm | - | - | - |
| 1777928116 | 13.33° C | 99% | 1012.1 hPa | 0.25 mm | - | - | - |
| 1777927573 | 13.33° C | 99% | 1012.2 hPa | 0.25 mm | - | - | - |
| 1777926971 | 13.33° C | 98% | 1012.2 hPa | 0.25 mm | - | - | - |
| 1777926368 | 13.33° C | 98% | 1012.3 hPa | 0.25 mm | - | - | - |
| 1777925766 | 13.33° C | 97% | 1012.2 hPa | 0.25 mm | - | - | - |
| 1777925163 | 13.89° C | 97% | 1012.1 hPa | 0.25 mm | - | - | - |
| 1777924561 | 13.89° C | 95% | 1012 hPa | 0 mm | - | - | - |
| 1777923958 | 13.89° C | 93% | 1012 hPa | 0 mm | - | - | - |
| 1777923356 | 13.89° C | 92% | 1012 hPa | 0 mm | - | - | - |
| 1777922753 | 13.89° C | 94% | 1011.8 hPa | 0 mm | - | - | - |
| 1777922151 | 14.44° C | 95% | 1011.8 hPa | 0 mm | - | - | - |
| 1777921548 | 14.44° C | 93% | 1011.7 hPa | 0 mm | - | - | - |
| 1777920945 | 13.89° C | 94% | 1011.7 hPa | 0 mm | - | - | - |
| 1777920343 | 13.89° C | 96% | 1011.7 hPa | 0 mm | - | - | - |
| 1777919740 | 13.89° C | 96% | 1011.7 hPa | 0 mm | - | - | - |
* Rain latest hour (hover to see other rain measurements)
** Current wind speed in m/s (hover to see current wind gust speed)